Volver al catálogo

STARLINK-3917

ActivoComunicacionesVLEO
NORAD 52588·PAYLOAD·🇺🇸 United States

Lanzado May 13, 2022 desde Vandenberg Space Force Base

Loading…

Próximos Pases (próximas 24 horas)

TLE

ActualizadoSource: CelesTrak SupGP

Época: Sep 14, 2026, 20:43 UTC

1 52588C 22051BE  26257.86368056 -.00026300  00000+0 -75260-3 0  2574
2 52588  53.1607 344.4878 0001074  76.3940   0.1197 15.35406631    14

Sigue STARLINK-3917 en tiempo real con AllMySat

Download on the App Store